Voltar ao catálogo

THORAD AGENA D DEB

AtivoPO
NORAD 4764·DEBRIS·🇺🇸 United States

Lançado Apr 8, 1970 de Vandenberg Space Force Base

Loading…

Próximas Passagens

TLE

Source: Space-Track
1  4764U 70025DJ  26225.18006625  .00003380  00000-0  96995-3 0  9995
2  4764  99.5091 300.6783 0024239 237.6129 122.2713 14.45517890835078

Acompanhe THORAD AGENA D DEB em tempo real com AllMySat

Download on the App Store